Probability
3 0 0 0 0 0 0 0 0 0 0 0 0 0 0 0 0 0 0 0 0 0 0 0 0 0 0 0 0 0 0 0 0 0 0 0 0 0 0 0 0 0 0
0 0 0 0 0 0 0 0 0 0 0 0 0 0 0 0 0 0 0 0 0 0 0 0 0 0 0 0 0 0 0 0 0 0 0 0 0 0 0 0 0 0 0
0 0 0 0 0 0 0 0 0 0 0 0 0 0 0 0 0 0 0 0 0 0 0 0 0 0 0 0 0 0 0 0 0 0 0 0 0 0 0 0 0 0 0
0 0 0 0 0 0 0 0 0 0 0 0 0 0 0 0 0 0 0 0 0 0 0 0 0 0 0 0 0 0 0 0 0 0 0 0 0 0 0 0 0 0 0
0 0 0 0 0 0 0 0 0 0 0 0 0 0 0 0 0 0 0 0 0 0 0 0 0 0 0 0 0 0 0 0 0 0 0 0 0 0 0 0 0 0 0
0 0 0 0 0 0 0 0 0 0 0 0 0 0 0 0 0 0 0 0 0 0 0 0 0 0 0 0 0 0 0 0 0 0 0 0 0 0 0 0 0 0 0
0 0 0 0 0 0 0 0 0 0 0 0 0 0 0 0 0 0 0 0 0 0 0 0 0 0 0 0 0 0 0 0 0 0 0 0 0 0 0 0 0 0 0
0 0 0 0 0 0 0 0 0 0 0 0 0 0 0 0 0 0 0 0 0 0 0 0 0 0 0 0 0 0 0 0 0 0 0 0 0 0 0 0 0 0 0
0 0 0 0 0 0 0 0 0 0 0 0 0 0 0 0 0 0 0 0 0 0 0 0 0 0 0 0 0 0 0 0 0 0 0 0 0 0 0 0 0 0 0
0 0 0 0 0 0 0 0 0 0 0 0 0 0 0 0 0 0 0 0 0 0 0 0 0 0 0 0 0 0 0 0 0 0 0 0 0 0 0 0 0 0 0
0 0 0 0 0 0 0 0 0 0 0 0 0 0 0 0 0 0 0 0 0 0 0 0 0 0 0 0 0 0 0 0 0 0 0 0 0 0 0 0 0 0 0
0 0 0 0 0 0 0 0 0 0 0 0 0 0 0 0 0 0 0 0 0 0 0 0 0 0 0 0 0 0 0 0 0 0 0 0 0 0 0 0 0 0 0
0 0 0 0 0 0 0 0 0 0 0 0 0 0 0 0 0 0 0 0 0 0 0 0 0 0 0 0 0 0 0 0 0 0 0 0 0 0 0 0 0 0 0
0 0 0 0 0 0 0 0 0 0 0 0 0 0 0 0 0 0 0 0 0 0 0 0 0 0 0 0 0 0 0 0 0 0 0 0 0 0 0 0 0 0 0
0 0 0 0 0 0 0 0 0 0 0 0 0 0 0 0 0 0 0 0 0 0 0 0 0 0 0 0 0 0 0 0 0 0 0 0 0 0 0 0 0 0 0
0 0 0 0 0 0 0 0 0 0 0 0 0 0 0 0 0 0 0 0 0 0 0 0 0 0 0 0 0 0 0 0 0 0 0 0 0 0 0 0 0 0 0
0 0 0 0 0 0 0 0 0 0 0 0 0 0 0 0 0 0 0 0 0 0 0 0 0 0 0 0 0 0 0 0 0 0 0 0 0 0 0 0 0 0 0
0 0 0 0 0 0 0 0 0 0 0 0 0 0 0 0 0 0 0 0 0 0 0 0 0 0 0 0 0 0 0 0 0 0 0 0 0 0 0 0 0 0 0
0 0 0 0 0 0 0 0 0 0 0 0 0 0 0 0 0 0 0 0 0 0 0 0 0 0 0 0 0 0 0 0 0 0 0 0 0 0 0 0 0 0 0
0 0 0 0 0 0 0 0 0 0 0 0 0 0 0 0 0 0 0 0 0 0 0 0 0 0 0 0 0 0 0 0 0 0 0 0 0 0 0 0 0 0 0
0 0 0 0 0 0 0 0 0 0 0 0 0 0 0 0 0 0 0 0 0 0 0 0 0 0 0 0 0 0 0 0 0 0 0 0 0 0 0 0 0 0 0
0 0 0 0 0 0 0 0 0 0 0 0 0 0 0 0 0 0 0 0 0 0 0 0 0 0 0 0 0 0 0 0 0 0 0 0 0 0 0 0 0 0 0
0 0 0 0 0 0 0 0 0 0 0 0 0 0 0 0 0 0 0 0 0 0 0 0 0 0 0 0 0 0 0 0 0 0 0 0 0 0 0 0 0 0 0
0 0 0 0 0 0 0 0 0 0 0 0 0 0 0 0 0 0 0 0 0 0 0 0 0 0 0 0 0 0 0 0 0 0 0 0 0 0 0 0 0 0 0
0 0 0 0 0 0 0 0 0 0 0 0 0 0 0 0 0 0 0 0 0 0 0 0 0 0 0 0 0 0 0 0 0 0 0 0 0 0 0 0 0 0 0
0 0 0 0 0 0 0 0 0 0 0 0 0 0 0 0 0 0 0 0 0 0 0 0 0 0 0 0 0 0 0 0 0 0 0 0 0 0 0 0 0 0 0
Height
5786 5787 5788 5789 5791 5792 5793 5794 5795 5797 5798 5799 5800 5801 5802 5803 5804 5805 5806 5807 5807 5808 5808 5809 5809 5810 5810 5811 5811 5812 5813 5813 5814 5815 5815 5816 5816 5817 5817 5818 5818 5818 5818
5778 5780 5781 5781 5783 5784 5785 5786 5788 5789 5790 5792 5793 5794 5795 5796 5797 5798 5799 5800 5801 5801 5802 5802 5803 5804 5804 5805 5806 5806 5807 5808 5808 5809 5810 5810 5811 5811 5812 5812 5813 5813 5814
5770 5771 5772 5773 5774 5775 5777 5778 5779 5780 5782 5783 5784 5786 5787 5788 5789 5790 5791 5792 5793 5794 5795 5796 5796 5797 5798 5798 5799 5800 5801 5801 5802 5803 5803 5804 5804 5805 5806 5806 5807 5808 5808
5761 5762 5763 5764 5765 5766 5767 5768 5770 5771 5772 5773 5775 5776 5778 5779 5781 5782 5783 5784 5785 5787 5787 5788 5789 5790 5790 5791 5792 5793 5794 5795 5795 5796 5797 5797 5798 5798 5799 5800 5800 5801 5802
5751 5752 5753 5754 5755 5756 5757 5758 5760 5761 5762 5763 5764 5766 5768 5769 5771 5772 5774 5775 5777 5778 5779 5780 5781 5782 5782 5783 5784 5785 5786 5787 5788 5789 5789 5790 5791 5791 5792 5793 5794 5794 5795
5740 5741 5742 5743 5744 5746 5747 5748 5749 5750 5751 5752 5754 5755 5757 5759 5761 5762 5764 5766 5767 5769 5770 5771 5772 5773 5774 5775 5776 5777 5778 5779 5780 5781 5782 5782 5783 5784 5785 5785 5786 5787 5787
5729 5730 5731 5732 5733 5735 5736 5737 5738 5739 5740 5741 5743 5745 5746 5748 5750 5752 5753 5755 5757 5759 5760 5761 5762 5763 5764 5766 5767 5768 5769 5770 5771 5772 5773 5774 5775 5776 5776 5777 5778 5778 5779
5718 5719 5720 5721 5722 5723 5724 5725 5726 5728 5729 5730 5732 5733 5735 5738 5739 5741 5743 5744 5746 5748 5749 5751 5752 5753 5754 5756 5757 5758 5759 5760 5761 5762 5763 5765 5766 5767 5768 5768 5769 5770 5770
5705 5707 5707 5708 5710 5711 5712 5713 5715 5716 5717 5719 5720 5722 5724 5726 5728 5730 5732 5734 5735 5737 5739 5740 5741 5743 5744 5745 5746 5748 5749 5750 5751 5752 5754 5755 5756 5757 5758 5759 5759 5760 5761
5692 5693 5694 5695 5697 5698 5699 5701 5702 5704 5705 5707 5708 5710 5712 5714 5716 5719 5721 5722 5724 5726 5727 5729 5730 5732 5733 5734 5736 5737 5738 5739 5740 5741 5743 5744 5745 5746 5747 5748 5749 5750 5750
5679 5680 5681 5682 5683 5684 5686 5687 5689 5691 5693 5695 5697 5698 5700 5702 5704 5706 5709 5710 5712 5713 5715 5717 5718 5720 5721 5723 5724 5725 5727 5728 5729 5730 5731 5732 5733 5735 5736 5737 5737 5738 5739
5666 5667 5668 5669 5670 5671 5672 5674 5676 5679 5681 5683 5685 5686 5688 5690 5692 5693 5696 5698 5700 5701 5703 5705 5706 5708 5709 5711 5712 5713 5714 5716 5717 5718 5719 5720 5721 5722 5723 5724 5725 5726 5727
5654 5654 5655 5656 5657 5658 5659 5661 5663 5666 5668 5670 5672 5674 5675 5677 5679 5681 5683 5685 5687 5689 5691 5693 5694 5695 5697 5698 5699 5700 5702 5703 5704 5705 5706 5707 5708 5709 5710 5711 5712 5713 5714
5641 5641 5642 5643 5644 5645 5646 5648 5650 5652 5655 5657 5659 5661 5662 5664 5666 5668 5670 5671 5673 5676 5678 5680 5681 5683 5684 5685 5686 5687 5688 5690 5691 5692 5693 5694 5695 5696 5697 5697 5699 5699 5700
5627 5628 5629 5630 5631 5632 5634 5635 5637 5639 5641 5643 5645 5647 5649 5650 5652 5654 5656 5658 5660 5662 5665 5667 5668 5669 5670 5671 5672 5673 5675 5676 5677 5678 5679 5680 5681 5682 5683 5684 5685 5685 5686
5614 5614 5615 5617 5618 5619 5620 5622 5624 5626 5628 5630 5631 5633 5635 5637 5638 5640 5642 5643 5645 5648 5650 5653 5654 5655 5656 5657 5658 5659 5660 5662 5663 5663 5665 5666 5667 5668 5668 5669 5670 5671 5672
5599 5600 5602 5603 5604 5606 5607 5609 5610 5612 5614 5616 5618 5619 5621 5622 5623 5625 5627 5629 5631 5633 5635 5638 5639 5640 5641 5643 5643 5644 5645 5647 5648 5648 5649 5650 5651 5652 5653 5654 5654 5655 5656
5586 5587 5588 5589 5590 5591 5593 5595 5597 5598 5600 5602 5603 5605 5606 5607 5609 5610 5612 5613 5616 5617 5619 5622 5624 5625 5626 5627 5628 5629 5630 5631 5632 5633 5634 5634 5635 5636 5637 5638 5638 5639 5640
5572 5573 5574 5575 5576 5577 5579 5580 5582 5583 5585 5587 5588 5590 5591 5592 5594 5595 5596 5598 5600 5602 5604 5606 5608 5610 5611 5611 5612 5614 5615 5616 5616 5617 5618 5618 5619 5619 5620 5621 5621 5622 5623
5558 5559 5560 5561 5562 5563 5564 5566 5567 5568 5570 5571 5573 5574 5576 5577 5578 5580 5581 5582 5584 5586 5587 5589 5591 5593 5595 5596 5596 5598 5599 5600 5600 5601 5602 5602 5602 5602 5603 5604 5605 5605 5605
5545 5546 5546 5547 5548 5549 5550 5551 5552 5553 5555 5556 5557 5559 5560 5561 5562 5563 5565 5566 5568 5569 5571 5573 5575 5577 5578 5580 5580 5581 5582 5583 5584 5584 5585 5586 5585 5585 5585 5585 5585 5586 5586
5532 5532 5533 5533 5534 5535 5535 5536 5537 5538 5539 5540 5541 5543 5544 5545 5546 5547 5548 5550 5551 5553 5555 5556 5558 5560 5561 5562 5563 5564 5564 5566 5568 5569 5567 5568 5567 5567 5567 5567 5567 5567 5567
5518 5519 5519 5519 5520 5520 5520 5521 5521 5522 5523 5524 5525 5526 5527 5528 5529 5530 5531 5533 5534 5536 5538 5540 5541 5543 5544 5545 5546 5547 5547 5548 5549 5550 5549 5551 5550 5549 5549 5549 5549 5549 5549
5504 5505 5505 5505 5505 5505 5505 5505 5505 5506 5507 5507 5508 5509 5510 5511 5512 5513 5514 5516 5517 5519 5521 5523 5525 5526 5526 5527 5528 5529 5530 5530 5531 5531 5530 5532 5532 5532 5532 5532 5531 5531 5531
5491 5491 5491 5491 5491 5491 5491 5491 5491 5491 5492 5492 5492 5492 5493 5494 5495 5496 5497 5499 5500 5502 5503 5504 5506 5508 5509 5509 5510 5511 5512 5513 5514 5514 5513 5514 5514 5514 5514 5514 5514 5513 5512
5478 5478 5478 5478 5478 5478 5478 5477 5476 5476 5477 5477 5477 5477 5478 5478 5478 5479 5480 5482 5483 5485 5486 5487 5488 5490 5491 5492 5492 5493 5494 5495 5495 5497 5496 5496 5496 5495 5497 5498 5496 5496 5495
Wind_Speed
32 32 33 33 32 32 32 33 33 32 32 31 31 31 30 30 29 29 28 28 27 27 26 26 26 25 26 25 25 25 25 25 25 25 24 24 24 24 24 24 23 23 23
34 34 35 35 35 34 34 34 34 34 34 34 34 34 33 33 32 32 31 31 30 30 29 28 28 28 28 27 27 27 27 27 27 27 26 26 26 26 26 26 25 25 25
36 37 37 38 38 37 37 37 37 37 37 37 37 36 36 35 35 34 34 33 33 32 31 31 31 30 30 30 30 29 29 28 28 29 29 29 28 28 27 27 27 27 27
39 39 39 40 40 40 40 40 40 40 39 39 39 39 38 38 37 37 37 36 36 35 34 33 33 33 32 32 32 32 31 31 31 30 31 31 30 30 30 29 29 29 29
40 41 41 41 41 41 41 41 40 40 40 40 40 41 41 40 39 40 39 39 38 38 37 36 36 35 35 35 34 34 34 34 33 33 32 32 32 32 32 31 31 31 31
42 42 42 42 42 42 41 41 42 42 41 41 41 41 42 42 41 41 41 40 40 40 39 38 38 38 37 37 37 37 36 36 36 35 35 34 34 34 34 33 33 33 33
44 44 43 44 43 43 42 42 43 43 43 43 42 42 42 42 42 42 42 42 42 42 41 41 41 40 40 40 40 39 39 38 38 37 37 37 36 35 35 35 35 35 35
45 45 44 44 45 45 45 44 44 44 44 44 43 43 43 43 43 43 43 43 43 43 43 43 43 43 42 42 42 41 41 41 40 40 39 39 39 38 38 38 37 37 37
48 47 47 46 46 46 46 46 45 45 45 45 45 44 44 44 44 44 44 44 44 44 44 44 44 44 44 44 43 43 44 44 43 43 43 42 42 41 41 41 40 40 40
48 49 49 49 49 49 48 47 47 47 46 46 46 46 46 46 46 45 46 46 45 45 45 45 45 46 46 46 45 45 46 46 46 45 45 45 44 44 44 43 43 43 43
49 49 49 50 50 50 50 49 48 47 47 47 47 47 47 47 47 47 47 47 47 47 47 47 46 47 47 47 47 47 47 47 47 47 47 47 47 47 47 47 46 46 46
49 49 49 48 49 49 50 50 49 49 49 49 48 48 48 48 48 49 48 48 48 48 49 48 48 48 48 48 49 49 49 48 49 49 49 49 49 49 49 49 49 48 48
48 49 49 49 49 49 49 50 50 50 50 51 50 50 50 50 50 50 50 49 50 49 49 49 49 49 49 49 49 49 49 49 50 50 50 50 50 50 50 51 51 51 50
50 50 50 49 50 50 49 49 50 50 51 51 51 51 51 51 52 51 51 51 51 51 50 50 51 51 51 51 51 51 51 51 51 51 51 51 52 52 52 52 53 52 52
50 50 50 50 51 50 50 51 51 51 52 52 52 52 52 53 53 53 53 53 52 52 52 52 52 52 52 52 52 52 52 52 52 52 52 52 52 52 52 52 53 53 53
51 51 51 51 51 50 51 52 52 52 52 52 52 53 53 54 54 54 55 54 54 54 54 53 53 53 53 54 53 53 54 54 54 54 54 54 54 54 54 54 54 55 55
51 52 52 52 52 52 52 52 53 53 53 52 53 53 53 54 55 55 55 56 56 56 56 55 55 55 55 56 56 55 55 56 56 56 56 57 57 56 56 56 56 56 56
52 52 52 53 54 54 54 53 53 53 54 54 54 54 55 55 56 55 55 56 57 57 57 57 56 56 57 57 57 56 56 57 56 56 57 57 58 58 58 57 57 58 58
52 52 52 53 54 54 54 55 55 55 55 54 54 55 55 56 56 56 56 57 58 58 59 59 58 58 57 58 58 57 57 57 57 57 57 57 58 59 59 59 59 59 60
53 53 53 53 54 54 54 54 54 55 55 55 56 56 56 57 57 57 57 57 58 59 59 59 58 58 58 58 58 58 57 58 58 58 58 59 59 60 60 61 61 61 61
53 53 53 54 54 54 54 55 55 55 55 55 56 57 57 58 58 58 58 59 59 59 59 59 58 58 58 58 58 58 59 59 59 59 59 60 60 61 61 61 62 62 63
51 52 51 52 53 54 55 55 55 56 56 56 56 57 58 58 58 59 60 59 59 59 59 59 59 58 58 59 59 59 60 60 59 59 60 60 60 60 60 61 62 62 62
49 50 51 51 51 52 53 53 54 56 57 58 58 58 58 58 59 59 59 60 60 60 60 60 59 58 58 59 60 60 61 61 61 61 61 60 60 61 61 61 61 61 62
48 49 49 49 49 49 50 51 52 52 54 55 56 57 57 58 59 59 60 60 60 60 60 60 59 59 59 60 60 60 61 61 61 61 62 61 61 61 61 61 60 61 61
46 47 47 48 47 47 49 50 50 51 51 51 52 53 54 55 56 57 57 57 58 59 60 60 60 60 61 61 61 61 61 61 60 60 61 61 61 60 59 59 59 60 60
45 45 45 46 46 45 46 47 48 49 49 49 49 49 50 51 53 54 55 56 57 58 59 60 60 60 60 60 60 61 60 60 60 59 59 59 59 59 58 57 58 58 58
Wind_Direction
252 252 253 253 253 253 253 253 253 254 254 254 254 254 255 255 256 257 258 259 259 259 258 258 259 259 259 260 260 260 260 260 261 261 262 262 260 259 259 261 261 262 262
254 254 254 254 254 254 254 254 254 254 254 254 254 255 256 256 257 257 258 259 259 259 259 259 259 259 259 260 260 260 260 260 261 261 262 262 261 260 261 261 261 262 261
254 255 255 255 256 255 255 255 256 255 255 255 255 255 255 256 257 257 258 259 260 260 259 259 259 259 259 259 260 259 259 260 261 262 262 263 262 262 262 261 262 262 261
255 256 256 256 257 257 257 257 257 256 256 256 255 255 255 255 256 257 258 258 259 260 260 259 259 259 259 259 259 259 260 260 261 262 262 263 264 264 263 262 262 262 262
256 257 256 257 257 258 258 257 256 256 256 256 255 255 255 255 256 256 257 258 259 259 260 260 259 259 259 260 260 259 259 260 260 261 261 262 263 263 263 263 263 263 262
257 258 258 257 257 258 258 257 257 257 257 256 256 256 255 255 256 256 257 257 258 259 260 260 260 259 259 259 260 260 259 259 260 261 261 261 262 262 262 262 262 263 262
257 258 257 257 258 258 257 257 258 257 257 257 256 256 256 256 256 256 257 258 258 259 260 260 260 259 259 259 259 259 259 260 260 260 261 261 262 262 262 262 262 262 262
256 257 257 257 257 257 258 258 257 257 257 256 257 257 257 257 257 257 257 258 259 259 260 260 260 260 259 260 259 259 259 259 260 260 261 261 262 262 262 262 263 262 262
258 258 258 259 259 258 258 258 257 257 257 257 257 258 258 258 258 257 257 258 259 259 260 260 260 260 260 260 260 259 259 260 260 260 261 262 262 262 263 263 264 264 263
258 258 259 259 259 258 258 258 258 258 257 257 257 258 258 259 258 257 257 258 258 258 259 260 260 260 261 260 261 261 260 260 260 261 261 262 262 263 263 264 264 264 264
258 259 259 260 259 259 258 258 258 257 257 257 257 258 259 259 258 257 256 257 258 258 259 259 259 260 260 260 260 261 261 261 261 261 262 262 262 263 263 263 264 265 264
259 260 260 259 259 259 258 258 258 257 258 258 258 259 259 259 259 258 257 257 258 258 259 259 259 260 260 261 261 261 261 262 262 262 262 262 262 263 263 263 264 265 265
260 260 259 259 258 258 258 257 257 257 258 258 258 259 259 259 259 258 258 258 258 258 259 259 259 260 260 261 261 261 262 262 263 263 263 263 263 263 263 263 264 265 266
260 260 260 259 259 258 258 258 257 257 258 258 258 259 259 259 259 258 258 258 258 258 259 259 260 259 260 261 261 261 262 262 263 263 263 264 264 264 264 264 264 265 266
260 259 259 259 259 259 259 258 258 258 258 259 259 260 259 259 259 258 258 258 258 258 258 259 259 260 260 261 261 262 262 263 264 264 264 264 264 264 264 264 265 265 265
259 259 259 259 259 259 260 259 259 259 259 260 260 259 259 259 259 258 258 258 257 258 258 259 259 260 261 262 263 263 264 264 265 264 264 264 265 265 265 265 265 265 265
259 258 258 258 258 258 258 259 259 259 260 260 260 260 260 260 259 258 258 258 258 258 259 259 259 260 261 262 263 263 264 265 265 265 264 264 265 265 266 266 265 265 266
258 257 258 258 259 259 259 259 259 260 260 260 260 260 260 260 260 260 259 259 259 259 259 260 260 260 261 261 262 263 264 264 264 265 265 265 265 266 266 266 266 265 265
258 258 259 259 259 259 260 260 260 260 259 259 259 259 260 260 260 260 260 260 260 260 260 261 261 261 261 261 262 262 263 264 264 265 265 266 266 266 266 266 266 266 266
258 259 260 260 261 261 261 260 260 260 259 258 259 260 261 261 260 260 261 261 261 261 261 262 262 262 262 262 262 263 264 264 265 265 265 266 267 267 267 267 267 266 266
259 260 261 261 261 261 261 261 261 261 260 260 260 261 261 261 261 261 261 261 261 261 261 262 262 262 262 262 263 264 264 265 265 265 266 267 268 268 268 267 267 267 267
261 260 261 262 261 261 262 263 262 261 261 261 261 262 261 261 260 260 260 260 261 261 262 262 262 262 262 262 263 264 265 265 266 266 266 267 268 268 269 268 268 267 267
261 261 262 263 262 262 262 263 263 262 262 261 261 262 262 261 260 260 259 259 260 260 261 261 262 262 262 263 263 264 265 266 266 267 266 267 267 268 268 268 268 267 267
260 261 261 262 263 262 263 263 264 263 262 262 262 262 262 261 260 260 259 259 259 260 260 260 261 262 263 264 264 265 265 266 266 266 267 267 267 267 267 268 268 267 267
261 262 263 261 262 263 264 264 264 263 263 263 263 263 263 262 261 260 260 260 260 259 260 261 261 262 263 264 264 264 265 266 266 266 267 267 267 267 267 267 268 268 267
262 263 263 262 263 264 264 264 265 264 264 264 264 264 264 263 262 262 261 261 261 260 261 262 262 263 263 264 265 265 265 265 266 266 266 267 266 266 266 266 267 268 268